SCP
0 0 0 0 0 0 0 0 0 -0 -0 0 -0 0 -0 0 0 0 -0 0 0 0 0 0 0 0 0 0 0 0 0 0 0 0 0 0 0 0
0 0 0 0 0 0 0 0 0 -0 -0 -0 -0 -0 0 0 0 0 0 -0 0 0 0 0 0 0 0 0 0 0 0 0 0 0 0 0 0 0
0 0 0 0 -0 0 0 -0 -0 0 -0 -0 -0 0 0 0 0 0 0 0 -0 -0 -0 -0 0 0 0 0 0 0 0 0 0 0 0 0 0 0
0 0 0 0 0 0 0 0 -0 0 -0 0 -0 0 0 0 0 0 -0 -0 -0 0 0 0 0 -0 -0 0 0 0 0 0 0 0 0 0 0 0
0 0 0 0 0 0 0 0 0 0 0 -0 0 0 -0 0 0 0 -0 -0 0 -0 -0 -0 0 -0 0 0 -0 0 0 0 0 0 0 0 0 0
0 0 0 0 0 0 -0 -0 -0 -0 -0 -0 -0 0 0 0 -0 -0 0 0 -0 0 -0 0 0 -0 -0 -0 0 0 0 0 0 0 0 0 0 0
0 0 0 0 0 0 0 0 0 0 -0 -0 -0 -0 0 0 0 -0 -0 -0 -0 -0 -0 -0 0 -0 -0 0 0 0 0 0 0 0 0 0 0 0
0 0 0 0 0 0 0 -0 -0 -0 -0 -0 -0 -0 0 0 -0 -0 -0 -0 -0 -0 -0 -0 -0 -0 -0 0 0 -0 0 0 0 0 0 0 -0 0
1 0 0 0 0 0 0 0 -0 -0 -0 0 -0 -0 -0 -0 -0 -0 -0 -0 -0 -0 -0 0 -0 -0 -0 0 0 0 0 0 0 0 0 0 0 0
0 0 0 0 0 0 0 0 0 0 0 0 0 0 0 0 0 -0 0 -0 0 0 0 0 0 -0 0 0 0 0 0 0 0 0 0 0 0 0
0 0 0 0 0 0 0 0 0 0 0 0 0 0 0 0 0 0 0 0 0 0 1 1 0 0 0 0 0 0 0 0 0 0 0 0 0 0
0 0 0 0 -0 0 0 0 0 0 0 0 0 0 0 0 0 0 0 0 0 0 1 1 0 0 0 0 0 0 0 0 0 0 0 0 0 0
0 0 0 0 0 0 0 0 0 0 0 0 0 0 0 0 0 0 0 1 1 0 1 1 1 1 1 0 0 0 0 0 0 0 0 0 0 0
0 0 0 0 0 0 0 0 0 0 0 0 0 0 0 0 0 0 0 0 0 0 0 1 1 1 1 0 0 0 0 0 0 0 0 0 0 0
0 0 0 0 0 0 0 0 0 0 0 0 0 0 0 0 0 0 0 0 0 0 0 1 1 1 1 0 0 0 0 0 0 0 0 0 0 0
0 0 0 0 0 0 0 0 0 0 0 0 0 0 0 0 0 0 0 0 0 0 0 1 1 1 1 1 1 0 0 0 0 0 0 0 0 1
0 0 0 0 0 0 0 0 0 0 0 0 0 0 0 0 0 0 0 0 0 0 0 0 1 1 1 1 1 0 0 0 0 0 0 0 0 1
0 0 0 0 0 0 0 0 0 0 0 0 0 0 0 0 0 0 0 0 0 0 0 0 0 0 0 0 0 0 0 0 0 0 0 0 0 1
0 0 0 0 0 0 0 0 0 0 0 0 0 0 0 0 0 0 0 0 0 0 0 0 0 0 0 0 0 0 0 0 0 0 0 0 1 1
0 0 0 0 0 0 0 0 0 0 0 0 0 0 0 0 0 0 0 0 0 0 0 0 0 0 0 0 0 0 0 0 0 0 0 0 0 0
0 0 0 0 0 0 0 -0 -0 -0 -0 -0 -0 0 0 0 0 0 0 0 0 0 0 0 0 0 0 0 0 0 0 0 0 0 0 1 0 0
0 0 0 0 0 0 0 0 -0 -0 -0 -0 -0 -0 -0 -0 -0 0 0 0 0 0 0 0 0 0 0 0 0 0 0 0 0 0 0 0 0 0
0 0 0 0 0 -0 -0 -0 -0 -0 -0 -0 -0 -0 -0 0 0 0 0 0 0 0 0 0 0 0 0 0 0 0 0 0 0 0 0 0 0 0
Wind_Speed_500mb
19 19 17 17 16 14 13 12 11 14 16 13 13 19 26 31 36 38 38 40 33 30 29 33 38 41 40 32 20 21 19 23 27 25 26 31 36 34
19 20 19 20 22 22 22 21 19 16 19 20 21 30 32 33 35 42 42 41 35 32 32 35 41 42 36 29 27 20 19 20 25 27 26 27 34 36
19 17 15 17 19 23 25 25 25 25 22 27 32 35 36 39 41 45 39 34 31 33 35 37 40 36 31 26 26 22 17 20 26 26 27 24 28 34
18 18 16 15 15 18 21 24 24 26 25 29 29 31 36 32 31 30 29 29 35 31 34 34 31 30 30 29 30 31 29 26 29 26 26 23 25 29
18 18 21 20 20 16 17 20 19 22 26 27 29 30 36 30 32 32 35 35 32 35 32 32 31 33 31 34 37 40 36 31 28 25 24 25 23 26
22 23 23 23 21 24 24 22 24 25 27 28 31 31 30 31 33 31 32 31 39 41 35 37 39 37 34 35 38 40 35 27 23 21 22 24 26 27
27 28 27 25 27 26 28 26 27 30 31 29 32 34 32 30 30 31 34 39 40 40 46 45 43 45 37 36 37 31 33 27 19 20 21 24 24 26
24 24 26 25 27 30 30 31 31 34 35 32 32 33 38 34 35 36 40 42 47 38 55 59 44 38 34 28 32 33 31 25 19 20 21 24 26 26
28 28 27 33 34 35 36 39 40 41 42 41 46 46 48 46 53 57 49 51 52 56 56 49 42 36 35 31 34 33 28 26 23 24 23 21 25 29
34 34 34 38 41 41 42 44 45 47 48 47 51 55 56 56 57 53 60 63 59 45 40 45 38 42 40 43 40 32 25 27 31 30 33 31 29 31
34 36 35 33 36 42 45 44 44 46 47 51 53 53 57 57 57 60 52 41 50 46 39 44 39 44 47 46 39 36 43 42 38 43 46 42 39 38
17 23 27 29 34 37 38 37 37 39 43 44 43 41 39 44 46 46 46 42 43 45 31 32 39 41 42 34 34 42 42 50 49 46 47 48 49 48
9 15 16 18 25 29 28 27 29 32 31 34 36 37 38 35 28 28 33 39 41 46 42 50 45 44 42 55 48 46 47 44 45 47 49 49 47 51
12 10 15 20 23 24 26 27 29 30 32 32 29 27 29 30 31 34 37 41 42 49 49 44 55 49 50 52 51 46 47 43 44 43 45 45 45 46
20 22 25 30 32 34 34 36 37 36 32 27 30 30 33 36 38 40 38 37 37 38 39 45 43 45 44 47 50 49 47 47 44 41 37 41 43 49
34 35 35 38 40 38 35 35 33 33 33 28 31 40 42 40 31 31 39 33 37 35 35 30 40 43 48 46 51 52 49 51 54 46 47 48 47 49
20 21 21 21 24 25 26 26 26 28 29 35 38 39 37 41 45 48 44 40 41 44 36 33 32 38 43 51 55 48 50 50 45 48 51 53 48 47
20 20 20 20 22 25 26 30 31 33 37 40 43 43 41 45 47 49 45 49 54 54 56 56 57 59 48 45 37 44 43 50 50 47 50 53 55 48
15 16 19 21 24 27 30 33 39 41 44 44 45 47 46 46 49 46 45 47 52 52 56 62 58 48 54 57 62 52 56 62 68 58 51 54 61 56
12 15 18 21 25 29 33 37 41 45 48 49 47 47 46 49 56 56 61 61 57 62 67 60 49 43 52 56 67 84 71 69 63 59 57 55 59 64
18 22 25 28 31 35 38 40 44 45 50 47 44 42 43 43 47 50 54 61 69 70 65 62 54 59 67 68 71 71 67 59 65 69 71 72 68 65
25 28 30 32 34 37 40 42 43 44 45 47 49 51 48 45 50 54 55 62 64 67 74 89 90 78 59 59 73 78 83 80 80 84 79 71 75 80
29 31 34 37 40 43 46 45 44 46 49 50 49 51 51 54 60 66 70 61 61 66 69 80 78 69 72 72 74 82 85 86 77 72 90 81 76 73
Wind_Direction_500mb
258 255 263 275 284 291 297 305 318 313 312 312 325 321 325 329 327 330 333 333 338 330 327 329 335 340 346 349 329 331 340 349 353 349 352 2 6 4
251 249 256 272 277 276 275 276 280 284 291 297 306 311 315 316 319 320 319 315 316 309 315 322 326 331 341 349 352 320 325 338 345 343 341 353 1 6
243 242 253 268 277 280 271 269 268 273 280 288 298 303 307 312 316 321 320 319 315 311 310 314 318 324 333 338 344 345 332 329 333 333 340 339 356 3
250 244 250 261 277 276 266 267 269 275 282 291 297 306 311 317 323 330 332 328 325 326 322 318 321 326 326 327 327 321 312 314 323 323 331 334 346 1
250 253 265 267 264 257 260 268 275 282 288 292 302 307 316 322 325 328 327 323 330 323 328 326 321 320 315 318 316 317 314 294 308 319 328 329 338 349
265 265 269 272 269 262 265 266 272 274 283 288 295 301 304 313 320 328 323 322 320 321 325 320 317 319 315 311 309 315 318 301 286 307 318 327 334 341
270 270 274 276 273 273 277 274 275 277 281 286 290 297 301 307 309 312 316 316 322 318 324 325 322 329 333 329 324 315 316 318 275 289 301 312 321 326
273 273 277 278 271 265 268 274 280 284 284 285 286 289 297 303 305 308 312 313 315 315 319 321 325 325 330 334 330 317 308 315 283 289 290 296 304 310
276 279 276 270 271 269 268 272 278 280 282 283 285 288 292 298 301 303 303 301 304 309 312 309 318 316 321 317 329 328 305 297 288 289 291 292 298 303
259 264 269 273 271 271 273 274 275 276 278 281 283 285 287 292 294 296 297 300 302 306 305 304 312 311 313 315 320 325 314 286 286 291 298 292 291 293
259 266 269 282 297 302 291 278 277 276 274 277 278 280 285 288 290 292 293 292 296 299 296 292 307 309 312 313 316 318 316 311 299 294 289 287 285 289
302 308 316 322 323 316 315 314 301 299 295 292 289 290 294 296 294 286 291 287 289 295 301 289 301 308 307 305 304 309 307 309 307 302 298 287 275 278
304 297 312 321 323 320 317 313 308 309 307 309 309 311 314 314 315 303 295 293 291 286 287 285 290 292 288 294 302 303 304 307 306 308 310 304 280 268
282 300 313 316 311 308 310 313 316 317 317 319 323 321 319 325 320 309 299 297 290 288 295 291 289 288 292 295 295 301 303 303 304 304 310 314 298 278
302 307 302 298 300 299 299 302 308 312 318 324 321 322 320 316 314 313 310 306 308 306 304 303 292 291 290 292 294 296 300 302 303 302 303 303 297 289
285 287 289 291 293 298 302 303 306 310 316 320 316 312 310 311 316 310 312 312 307 309 300 303 305 303 297 289 289 292 295 292 300 298 296 293 291 285
293 302 302 303 303 308 316 319 320 321 320 316 314 315 317 311 305 305 306 306 313 312 317 312 304 298 298 296 295 295 298 297 298 296 294 292 286 282
321 323 324 330 326 325 327 325 324 321 317 316 315 315 313 314 312 315 311 303 296 294 292 298 305 309 306 294 300 300 295 297 300 299 295 289 286 280
326 328 332 335 331 329 328 325 322 322 321 319 316 314 311 311 312 310 309 307 301 299 298 295 299 306 305 297 294 290 293 293 298 296 294 288 287 285
344 347 343 338 334 333 330 328 326 324 322 321 317 310 307 308 306 303 302 303 304 301 297 298 298 301 292 294 296 292 293 299 299 295 293 291 285 287
3 359 354 350 346 342 339 337 334 330 330 327 325 320 315 313 308 305 303 302 302 299 296 294 292 278 286 293 289 287 287 283 288 291 292 290 290 290
2 358 355 352 349 346 342 338 335 331 327 324 320 318 316 313 313 308 303 301 299 296 294 295 296 298 293 287 286 287 288 286 279 283 287 285 281 285
0 357 353 351 349 347 345 341 335 331 328 324 320 317 314 313 309 303 292 290 291 293 293 292 297 292 289 290 285 285 288 289 289 287 280 280 283 279
Wind_Speed_850mb
19 19 17 17 16 14 13 12 11 14 16 13 13 19 26 31 36 38 38 40 33 30 29 33 38 41 40 32 20 21 19 23 27 25 26 31 36 34
19 20 19 20 22 22 22 21 19 16 19 20 21 30 32 33 35 42 42 41 35 32 32 35 41 42 36 29 27 20 19 20 25 27 26 27 34 36
19 17 15 17 19 23 25 25 25 25 22 27 32 35 36 39 41 45 39 34 31 33 35 37 40 36 31 26 26 22 17 20 26 26 27 24 28 34
18 18 16 15 15 18 21 24 24 26 25 29 29 31 36 32 31 30 29 29 35 31 34 34 31 30 30 29 30 31 29 26 29 26 26 23 25 29
18 18 21 20 20 16 17 20 19 22 26 27 29 30 36 30 32 32 35 35 32 35 32 32 31 33 31 34 37 40 36 31 28 25 24 25 23 26
22 23 23 23 21 24 24 22 24 25 27 28 31 31 30 31 33 31 32 31 39 41 35 37 39 37 34 35 38 40 35 27 23 21 22 24 26 27
27 28 27 25 27 26 28 26 27 30 31 29 32 34 32 30 30 31 34 39 40 40 46 45 43 45 37 36 37 31 33 27 19 20 21 24 24 26
24 24 26 25 27 30 30 31 31 34 35 32 32 33 38 34 35 36 40 42 47 38 55 59 44 38 34 28 32 33 31 25 19 20 21 24 26 26
28 28 27 33 34 35 36 39 40 41 42 41 46 46 48 46 53 57 49 51 52 56 56 49 42 36 35 31 34 33 28 26 23 24 23 21 25 29
34 34 34 38 41 41 42 44 45 47 48 47 51 55 56 56 57 53 60 63 59 45 40 45 38 42 40 43 40 32 25 27 31 30 33 31 29 31
34 36 35 33 36 42 45 44 44 46 47 51 53 53 57 57 57 60 52 41 50 46 39 44 39 44 47 46 39 36 43 42 38 43 46 42 39 38
17 23 27 29 34 37 38 37 37 39 43 44 43 41 39 44 46 46 46 42 43 45 31 32 39 41 42 34 34 42 42 50 49 46 47 48 49 48
9 15 16 18 25 29 28 27 29 32 31 34 36 37 38 35 28 28 33 39 41 46 42 50 45 44 42 55 48 46 47 44 45 47 49 49 47 51
12 10 15 20 23 24 26 27 29 30 32 32 29 27 29 30 31 34 37 41 42 49 49 44 55 49 50 52 51 46 47 43 44 43 45 45 45 46
20 22 25 30 32 34 34 36 37 36 32 27 30 30 33 36 38 40 38 37 37 38 39 45 43 45 44 47 50 49 47 47 44 41 37 41 43 49
34 35 35 38 40 38 35 35 33 33 33 28 31 40 42 40 31 31 39 33 37 35 35 30 40 43 48 46 51 52 49 51 54 46 47 48 47 49
20 21 21 21 24 25 26 26 26 28 29 35 38 39 37 41 45 48 44 40 41 44 36 33 32 38 43 51 55 48 50 50 45 48 51 53 48 47
20 20 20 20 22 25 26 30 31 33 37 40 43 43 41 45 47 49 45 49 54 54 56 56 57 59 48 45 37 44 43 50 50 47 50 53 55 48
15 16 19 21 24 27 30 33 39 41 44 44 45 47 46 46 49 46 45 47 52 52 56 62 58 48 54 57 62 52 56 62 68 58 51 54 61 56
12 15 18 21 25 29 33 37 41 45 48 49 47 47 46 49 56 56 61 61 57 62 67 60 49 43 52 56 67 84 71 69 63 59 57 55 59 64
18 22 25 28 31 35 38 40 44 45 50 47 44 42 43 43 47 50 54 61 69 70 65 62 54 59 67 68 71 71 67 59 65 69 71 72 68 65
25 28 30 32 34 37 40 42 43 44 45 47 49 51 48 45 50 54 55 62 64 67 74 89 90 78 59 59 73 78 83 80 80 84 79 71 75 80
29 31 34 37 40 43 46 45 44 46 49 50 49 51 51 54 60 66 70 61 61 66 69 80 78 69 72 72 74 82 85 86 77 72 90 81 76 73
Wind_Direction_850mb
258 255 263 275 284 291 297 305 318 313 312 312 325 321 325 329 327 330 333 333 338 330 327 329 335 340 346 349 329 331 340 349 353 349 352 2 6 4
251 249 256 272 277 276 275 276 280 284 291 297 306 311 315 316 319 320 319 315 316 309 315 322 326 331 341 349 352 320 325 338 345 343 341 353 1 6
243 242 253 268 277 280 271 269 268 273 280 288 298 303 307 312 316 321 320 319 315 311 310 314 318 324 333 338 344 345 332 329 333 333 340 339 356 3
250 244 250 261 277 276 266 267 269 275 282 291 297 306 311 317 323 330 332 328 325 326 322 318 321 326 326 327 327 321 312 314 323 323 331 334 346 1
250 253 265 267 264 257 260 268 275 282 288 292 302 307 316 322 325 328 327 323 330 323 328 326 321 320 315 318 316 317 314 294 308 319 328 329 338 349
265 265 269 272 269 262 265 266 272 274 283 288 295 301 304 313 320 328 323 322 320 321 325 320 317 319 315 311 309 315 318 301 286 307 318 327 334 341
270 270 274 276 273 273 277 274 275 277 281 286 290 297 301 307 309 312 316 316 322 318 324 325 322 329 333 329 324 315 316 318 275 289 301 312 321 326
273 273 277 278 271 265 268 274 280 284 284 285 286 289 297 303 305 308 312 313 315 315 319 321 325 325 330 334 330 317 308 315 283 289 290 296 304 310
276 279 276 270 271 269 268 272 278 280 282 283 285 288 292 298 301 303 303 301 304 309 312 309 318 316 321 317 329 328 305 297 288 289 291 292 298 303
259 264 269 273 271 271 273 274 275 276 278 281 283 285 287 292 294 296 297 300 302 306 305 304 312 311 313 315 320 325 314 286 286 291 298 292 291 293
259 266 269 282 297 302 291 278 277 276 274 277 278 280 285 288 290 292 293 292 296 299 296 292 307 309 312 313 316 318 316 311 299 294 289 287 285 289
302 308 316 322 323 316 315 314 301 299 295 292 289 290 294 296 294 286 291 287 289 295 301 289 301 308 307 305 304 309 307 309 307 302 298 287 275 278
304 297 312 321 323 320 317 313 308 309 307 309 309 311 314 314 315 303 295 293 291 286 287 285 290 292 288 294 302 303 304 307 306 308 310 304 280 268
282 300 313 316 311 308 310 313 316 317 317 319 323 321 319 325 320 309 299 297 290 288 295 291 289 288 292 295 295 301 303 303 304 304 310 314 298 278
302 307 302 298 300 299 299 302 308 312 318 324 321 322 320 316 314 313 310 306 308 306 304 303 292 291 290 292 294 296 300 302 303 302 303 303 297 289
285 287 289 291 293 298 302 303 306 310 316 320 316 312 310 311 316 310 312 312 307 309 300 303 305 303 297 289 289 292 295 292 300 298 296 293 291 285
293 302 302 303 303 308 316 319 320 321 320 316 314 315 317 311 305 305 306 306 313 312 317 312 304 298 298 296 295 295 298 297 298 296 294 292 286 282
321 323 324 330 326 325 327 325 324 321 317 316 315 315 313 314 312 315 311 303 296 294 292 298 305 309 306 294 300 300 295 297 300 299 295 289 286 280
326 328 332 335 331 329 328 325 322 322 321 319 316 314 311 311 312 310 309 307 301 299 298 295 299 306 305 297 294 290 293 293 298 296 294 288 287 285
344 347 343 338 334 333 330 328 326 324 322 321 317 310 307 308 306 303 302 303 304 301 297 298 298 301 292 294 296 292 293 299 299 295 293 291 285 287
3 359 354 350 346 342 339 337 334 330 330 327 325 320 315 313 308 305 303 302 302 299 296 294 292 278 286 293 289 287 287 283 288 291 292 290 290 290
2 358 355 352 349 346 342 338 335 331 327 324 320 318 316 313 313 308 303 301 299 296 294 295 296 298 293 287 286 287 288 286 279 283 287 285 281 285
0 357 353 351 349 347 345 341 335 331 328 324 320 317 314 313 309 303 292 290 291 293 293 292 297 292 289 290 285 285 288 289 289 287 280 280 283 279